Le nostre stazioni meteo in Italia

Pubblicità
Il mio iltempo24.it
Aosta, Italia (16054): Temperatura & dewpoint: 15.09.2018 05:00:00 - 21.09.2018 05:00:00 (CEST)Aosta, Italia (16054): velocità del vento: 15.09.2018 05:00:00 - 21.09.2018 05:00:00 (CEST)Aosta, Italia (16054): direzione del vento: 15.09.2018 05:00:00 - 21.09.2018 05:00:00 (CEST)Aosta, Italia (16054): visibility: 15.09.2018 05:00:00 - 21.09.2018 05:00:00 (CEST)Aosta, Italia (16054): precipitazioni: 15.09.2018 05:00:00 - 21.09.2018 05:00:00 (CEST)
Data & Tempo tt [°C] td [°C] ff [km/h] ff [kn] dd vv [km] rr [mm]
21.09.2018 05:00:00 - - - - - - -
21.09.2018 04:00:00 13,8 11,5 0 0 N - -
21.09.2018 03:00:00 14,3 12,1 0 0 N - -
21.09.2018 02:00:00 14,7 12,5 0 0 N - 0,0
21.09.2018 01:00:00 15,5 12,2 0 0 N - -
21.09.2018 00:00:00 16,9 12,8 0 0 N - -
20.09.2018 23:00:00 19,0 12,9 0 0 N - -
20.09.2018 22:00:00 18,6 13,6 0 0 N - -
20.09.2018 21:00:00 20,7 12,8 0 0 N - -
20.09.2018 20:00:00 24,0 13,7 15 8 ENE 10 0,0
20.09.2018 19:00:00 26,2 12,6 24 13 ESE 10 -
20.09.2018 18:00:00 27,2 12,4 31 17 E 10 -
20.09.2018 17:00:00 27,6 12,8 28 15 E 10 -
20.09.2018 16:00:00 27,6 13,8 26 14 E 10 -
20.09.2018 15:00:00 27,7 13,6 21 11 E 10 -
20.09.2018 14:00:00 26,5 11,8 22 12 ESE 10 0,0
20.09.2018 13:00:00 24,8 12,0 9 5 E 10 -
20.09.2018 12:00:00 23,4 12,0 4 2 - 10 -
20.09.2018 11:00:00 21,2 13,3 2 1 - 10 -
20.09.2018 10:00:00 17,9 13,1 2 1 - 10 -
20.09.2018 09:00:00 15,1 14,2 4 2 - 10 -
20.09.2018 08:00:00 11,4 9,3 0 0 N 10 0,0
20.09.2018 07:00:00 11,5 9,7 0 0 N 10 -
20.09.2018 06:00:00 12,0 10,1 0 0 N - -
20.09.2018 05:00:00 12,5 10,5 0 0 N - -
20.09.2018 04:00:00 12,9 10,6 0 0 N - -
20.09.2018 03:00:00 13,5 11,0 0 0 N - -
20.09.2018 02:00:00 14,1 11,2 0 0 N - 0,0
20.09.2018 01:00:00 15,4 11,7 0 0 N - -
20.09.2018 00:00:00 16,3 12,2 0 0 N - -
19.09.2018 23:00:00 17,0 12,7 0 0 N - -
19.09.2018 22:00:00 18,1 12,9 0 0 N - -
19.09.2018 21:00:00 18,6 12,5 0 0 N - -
19.09.2018 20:00:00 21,9 12,1 5 3 E 10 -
19.09.2018 19:00:00 25,5 11,6 18 10 E 10 -
19.09.2018 18:00:00 26,3 11,6 21 11 E 10 -
19.09.2018 17:00:00 27,2 13,1 28 15 E 10 -
19.09.2018 16:00:00 27,7 12,5 29 16 E 10 -
19.09.2018 15:00:00 27,1 15,4 15 8 ESE 10 -
19.09.2018 14:00:00 24,8 14,5 5 3 E 10 -
19.09.2018 13:00:00 23,2 15,2 5 3 SE 10 -
19.09.2018 12:00:00 21,2 15,2 4 2 - 10 -
19.09.2018 11:00:00 19,9 16,1 0 0 N 10 -
19.09.2018 10:00:00 17,7 15,1 4 2 - 10 -
19.09.2018 09:00:00 15,3 14,8 4 2 - 10 -
19.09.2018 08:00:00 13,4 12,3 0 0 N 10 -
19.09.2018 07:00:00 13,1 11,5 4 2 - 10 -
19.09.2018 06:00:00 14,4 12,8 0 0 N - -
19.09.2018 05:00:00 15,2 13,8 0 0 N - -
19.09.2018 04:00:00 15,8 14,9 0 0 N - -
19.09.2018 03:00:00 14,8 13,1 0 0 N - -
19.09.2018 02:00:00 16,3 14,4 0 0 N - -
19.09.2018 01:00:00 16,9 14,7 0 0 N - -
19.09.2018 00:00:00 18,2 15,4 0 0 N - -
18.09.2018 23:00:00 19,2 15,2 0 0 N - -
18.09.2018 22:00:00 18,5 13,9 0 0 N - -
18.09.2018 21:00:00 19,8 14,1 0 0 N - -
18.09.2018 20:00:00 22,8 14,5 18 10 E 10 0,0
18.09.2018 19:00:00 24,4 13,8 24 13 E 10 -
18.09.2018 18:00:00 25,6 13,7 29 16 E 10 -
18.09.2018 17:00:00 26,3 13,7 28 15 E 10 -
18.09.2018 16:00:00 26,9 13,6 28 15 E 10 -
18.09.2018 15:00:00 26,4 12,1 18 10 E 10 -
18.09.2018 14:00:00 25,6 13,0 13 7 ESE 10 0,0
18.09.2018 13:00:00 24,1 14,1 4 2 - 10 -
18.09.2018 12:00:00 22,2 16,2 4 2 - 10 -
18.09.2018 11:00:00 18,1 14,3 2 1 - 10 -
18.09.2018 10:00:00 17,3 14,5 4 2 - 10 -
18.09.2018 09:00:00 16,3 15,1 2 1 - 10 -
18.09.2018 08:00:00 14,3 13,0 0 0 N - 0,0
18.09.2018 07:00:00 14,0 12,7 0 0 N 10 -
18.09.2018 06:00:00 13,8 12,0 0 0 N - -
18.09.2018 05:00:00 14,9 12,9 0 0 N - -
18.09.2018 04:00:00 15,1 12,4 0 0 N - -
18.09.2018 03:00:00 16,9 14,5 0 0 N - -
18.09.2018 02:00:00 17,7 14,7 0 0 N - 0,0
18.09.2018 01:00:00 17,6 14,2 0 0 N - -
18.09.2018 00:00:00 18,6 14,4 0 0 N - -
17.09.2018 23:00:00 18,5 14,3 0 0 N - -
17.09.2018 22:00:00 17,4 13,4 0 0 N - -
17.09.2018 21:00:00 18,6 13,8 0 0 N - -
17.09.2018 20:00:00 22,0 12,8 13 7 ENE 10 -
17.09.2018 19:00:00 23,9 12,5 21 11 E 10 -
17.09.2018 18:00:00 25,0 13,5 28 15 E 10 -
17.09.2018 17:00:00 25,9 13,7 29 16 E 10 -
17.09.2018 16:00:00 26,3 13,7 29 16 E 10 -
17.09.2018 15:00:00 25,9 14,3 22 12 E 10 -
17.09.2018 14:00:00 25,2 15,7 0 0 N 10 0,0
17.09.2018 13:00:00 24,7 14,1 11 6 E 10 -
17.09.2018 12:00:00 22,7 15,9 4 2 - 10 -
17.09.2018 11:00:00 19,7 16,5 4 2 - 10 -
17.09.2018 10:00:00 18,4 16,7 2 1 - 10 -
17.09.2018 09:00:00 17,0 16,1 4 2 S 10 -
17.09.2018 08:00:00 16,3 14,9 0 0 N 10 -
17.09.2018 07:00:00 16,0 14,5 4 2 - 10 -
17.09.2018 06:00:00 16,2 15,0 0 0 N - -
17.09.2018 05:00:00 16,1 14,7 0 0 N - -
17.09.2018 04:00:00 16,6 15,2 0 0 N - -
17.09.2018 03:00:00 16,7 14,8 0 0 N - -
17.09.2018 02:00:00 17,4 15,5 0 0 N - -
17.09.2018 01:00:00 17,7 15,4 0 0 N - -
17.09.2018 00:00:00 17,7 15,4 0 0 N - -
16.09.2018 23:00:00 17,8 15,0 0 0 N - -
16.09.2018 22:00:00 18,1 14,9 0 0 N - -
16.09.2018 21:00:00 18,7 15,3 0 0 N - -
16.09.2018 20:00:00 20,4 15,1 0 0 N - -
16.09.2018 19:00:00 22,6 15,1 13 7 E 10 -
16.09.2018 18:00:00 23,6 15,8 13 7 E 10 -
16.09.2018 17:00:00 23,5 17,6 15 8 E 10 -
16.09.2018 16:00:00 22,4 17,7 13 7 ESE 10 -
16.09.2018 15:00:00 21,5 17,4 0 0 N - -
16.09.2018 14:00:00 20,8 17,7 2 1 - 10 -
16.09.2018 13:00:00 20,2 17,7 0 0 N - -
16.09.2018 12:00:00 19,7 17,6 16 9 ESE 10 -
16.09.2018 11:00:00 19,5 17,4 4 2 - 9 -
16.09.2018 10:00:00 19,7 17,2 4 2 - 10 -
16.09.2018 09:00:00 18,9 16,8 4 2 SSE 10 -
16.09.2018 08:00:00 18,8 16,7 2 1 - 10 0,0
16.09.2018 07:00:00 19,0 16,2 8 4 ENE 10 -
16.09.2018 06:00:00 18,9 15,7 0 0 N - -
16.09.2018 05:00:00 19,0 16,2 0 0 N - -
16.09.2018 04:00:00 18,6 15,4 0 0 N - -
16.09.2018 03:00:00 18,5 15,1 0 0 N - -
16.09.2018 02:00:00 19,0 15,2 0 0 N - 0,0
16.09.2018 01:00:00 19,2 15,0 0 0 N - -
16.09.2018 00:00:00 19,1 14,7 0 0 N - -
15.09.2018 23:00:00 19,1 14,5 0 0 N - -
15.09.2018 22:00:00 20,8 14,4 0 0 N - -
15.09.2018 21:00:00 23,0 14,7 0 0 N - -
15.09.2018 20:00:00 24,0 14,0 26 14 ESE 10 0,0
15.09.2018 19:00:00 24,9 13,7 34 18 E 10 -
15.09.2018 18:00:00 26,4 13,1 34 18 E 10 -
15.09.2018 17:00:00 27,5 12,7 34 18 E 10 -
15.09.2018 16:00:00 28,1 13,2 29 16 E 10 -
15.09.2018 15:00:00 28,3 13,0 29 16 E 10 -
15.09.2018 14:00:00 27,5 12,3 21 11 E 10 0,0
15.09.2018 13:00:00 25,8 10,8 8 4 E 10 -
15.09.2018 12:00:00 24,0 9,5 4 2 - 10 -
15.09.2018 11:00:00 21,4 12,2 4 2 - 10 -
15.09.2018 10:00:00 18,8 12,9 2 1 - 10 -
15.09.2018 09:00:00 15,3 13,3 4 2 OSO 10 -
15.09.2018 08:00:00 11,7 9,4 4 2 - 10 0,0
15.09.2018 07:00:00 11,5 8,9 0 0 N 10 -
15.09.2018 06:00:00 12,3 9,5 0 0 N - -
15.09.2018 05:00:00 13,5 10,6 0 0 N - -

tt = Temperatura
td = dewpoint
ff = velocità del vento
dd = direzione del vento
vv = visibility
rr = precipitazioni

Stazioni seguenti

WeatherPro
AMSI
MeteoEarth